Regional Weather Roundup
Issued by NWS

Home | Current Version | Previous Version | Graphics & Text | Print | Product List | Glossary Off
Versions: 1 2 3 4 5 6 7 8 9 10 11 12 13 14 15 16 17 18 19 20 21 22 23 24 25 26 27 28 29 30 31 32 33 34 35 36 37 38 39 40 41 42 43 44 45 46 47 48 49 50

000
ASUS43 KBIS 260310
RWRND

NORTH DAKOTA REGIONAL WEATHER ROUNDUP
NATIONAL WEATHER SERVICE BISMARCK ND
1000 PM CDT THU AUG 25 2016

NOTE: "FAIR" INDICATES FEW OR NO CLOUDS BELOW 12,000 FEET WITH NO
SIGNIFICANT WEATHER AND/OR OBSTRUCTIONS TO VISIBILITY.


NDZ001>003-009>011-017-260400-
NORTHWEST NORTH DAKOTA

CITY           SKY/WX    TMP DP  RH WIND       PRES   REMARKS
WILLISTON      CLOUDY    61  38  42 SW3       30.09R
MINOT          PTCLDY    62  39  42 SE3       30.06S
MINOT AFB      CLEAR     52  42  69 S5        30.05S
$$

NDZ018>021-031>035-040>046-260400-
SOUTHWEST NORTH DAKOTA

CITY           SKY/WX    TMP DP  RH WIND       PRES   REMARKS
BISMARCK       PTCLDY    58  47  66 S5        30.11S
DICKINSON      CLEAR     50  39  66 SW8       30.13R
GARRISON         N/A     55  45  68 CALM      30.09R
HETTINGER ARPT CLEAR     55  39  54 CALM      30.18R
$$

NDZ004>008-012>016-024-026-027-054-260400-
NORTHEAST NORTH DAKOTA

CITY           SKY/WX    TMP DP  RH WIND       PRES   REMARKS
GRAND FORKS    PTCLDY    56  51  84 S9        30.04S
GRND FRKS AFB  CLEAR     55  51  86 W7        30.05R
DEVILS LAKE    CLEAR     57  51  80 CALM      30.07S
$$

NDZ022-023-025-028>030-036>039-047>053-260400-
SOUTHEAST NORTH DAKOTA

CITY           SKY/WX    TMP DP  RH WIND       PRES   REMARKS
FARGO          CLOUDY    63  52  67 SW5       30.07S
JAMESTOWN      CLEAR     57  50  77 SW6       30.09S
$$





USA.gov is the U.S. government's official web portal to all federal, state and local government web resources and services.